Regional Weather Roundup
Issued by NWS

Home | Current Version | Previous Version | Text Only | Print | Product List | Glossary Off
Versions: 1 2 3 4 5 6 7 8 9 10 11 12 13 14 15 16 17 18 19 20 21 22 23 24 25 26 27 28 29 30 31 32 33 34 35 36 37 38 39 40 41 42 43 44 45 46 47 48 49 50

000
ASUS43 KLMK 250402
RWRKY
KENTUCKY REGIONAL WEATHER ROUNDUP
NATIONAL WEATHER SERVICE LOUISVILLE KY
1200 AM EDT SAT OCT 25 2014

NOTE "FAIR" INDICATES FEW OR NO CLOUDS BELOW 12,000 FEET
WITH NO SIGNIFICANT WEATHER AND/OR OBSTRUCTIONS TO VISIBILITY.

KYZ001>023-026-027-061>063-070>075-250500-
WESTERN AND SOUTH CENTRAL KENTUCKY

CITY           SKY/WX    TMP DP  RH WIND       PRES   REMARKS
PADUCAH        CLEAR     52  49  89 SW5       30.06S
HENDERSON      CLEAR    N/A N/A N/A CALM      30.06S
OWENSBORO      CLEAR     52  49  89 CALM      30.06F
HOPKINSVILLE   CLEAR     52  52 100 SW1       30.08S
BOWLING GREEN  CLEAR     49  45  86 CALM      30.09S
GLASGOW        NOT AVBL
$$

KYZ024-025-028>034-038-045-046-053-250500-
NORTH CENTRAL KENTUCKY

CITY           SKY/WX    TMP DP  RH WIND       PRES   REMARKS
LOUISVILLE/SDF PTCLDY    53  46  77 S3        30.06R
LOUISVILLE/LOU CLEAR     50  47  89 CALM      30.07R
FORT KNOX      CLEAR     48  47  96 CALM      30.06R
$$

KYZ035>037-039>044-047>052-055>060-089>105-250500-
NORTHEAST KENTUCKY

CITY           SKY/WX    TMP DP  RH WIND       PRES   REMARKS
LEXINGTON      CLEAR     48  41  76 S5        30.07S
COVINGTON      PTCLDY    48  41  76 CALM      30.05R
FRANKFORT      CLEAR     45  41  86 CALM      30.06S
$$

KYZ054-064>069-076>088-106>120-250500-
SOUTHEAST KENTUCKY

CITY           SKY/WX    TMP DP  RH WIND       PRES   REMARKS
JACKSON        CLEAR     50  41  71 S3        30.07F
LONDON         CLEAR     45  41  86 CALM      30.08F
SOMERSET       CLEAR     43  43 100 CALM      30.10S
MIDDLESBORO    CLEAR     41  41  97 CALM      30.11S
MONTICELLO     CLEAR     43  41  93 CALM      30.11S
$$




USA.gov is the U.S. government's official web portal to all federal, state and local government web resources and services.